Location: Ertinghausen
(51.6624°N, 9.7874°E)
Time: 13:22:22
(UTC+00:00)

Cosmos 1833 Rocket - Pass Details

Date: 23 May 2024
Orbit: 832 x 839 km, 71.0° (Epoch: 12 June)

Event Time Altitude Azimuth Distance (km) Brightness Sun altitude
Exits shadow 00:08:16 17° 236° (WSW) 2,007 4.2 -16.9°
Maximum altitude 00:12:29 51° 308° (NW) 1,046 3.3 -16.7°
Drops below altitude 10° 00:17:58 10° 24° (NNE) 2,456 6.4 -16.5°
Sets 00:20:30 0° 30° (NNE) 3,395 7.4 -16.4°
